sat.trackr.live / text

‹ back to catalog

QZS-6 (QZSS/PRN 200)

NORAD 62876 · 2025-023A

PAYLOAD ACTIVE UNKNOWN

§ Identity

Operator
Country
JPN
Launch date
2025-02-02
Launch site
TANSC
Launch vehicle
Mass (kg)
RCS (m²)

Purposes: comms, nav

External: N2YO · Heavens-Above · Gunter

§ Orbital elements

Epoch: 2026-09-19T20:57:54.567072Z

Period
1,436.06 min
Inclination
0.0443°
Eccentricity
0.0001895
Mean motion
1.00274593 rev/d
Perigee alt
35,777.8 km
Apogee alt
35,793.8 km
Semi-major
42,163.9 km
B*
0.0000e+0
RAAN
285.5121°
Arg perigee
256.5675°
Mean anomaly
221.7040°
Rev number
589

§ Raw data

QZS-6 (QZSS/PRN 200)1 62876U 25023A   26262.87354823 -.00000238  00000+0  00000+0 0  99912 62876   0.0443 285.5121 0001895 256.5675 221.7040  1.00274593  5894

JSON: /api/v1/satellites/62876 · /tle

For live sub-satellite position, see the globe view (requires WebGL).

§ Visibility from observer

Set your observer location to see the next 7 days of passes ≥ 10°. The values pass through the URL so the page stays shareable.

No JS? Fill the form by hand. The geolocation button needs JavaScript.